| time (UTC) | temp C | wind direction | speed KPH | gust KPH | rain 1hr cm | rain 24hr cm | rain mn cm | humidity % | barometer mb |
| 20260901014523 | 20 | 229 | 0.0 | 0.0 | 0.00 | 0.00 | 0.00 | 92 | 1018.6 |
| 20260901013024 | 20 | 229 | 0.0 | 0.0 | 0.00 | 0.00 | 0.00 | 93 | 1018.7 |
| 20260901011528 | 20 | 229 | 0.0 | 0.0 | 0.00 | 0.00 | 0.00 | 93 | 1018.7 |
| 20260901010024 | 20 | 229 | 0.0 | 0.0 | 0.00 | 0.00 | 0.00 | 92 | 1018.6 |
| 20260901004521 | 20 | 229 | 0.0 | 0.0 | 0.00 | 0.00 | 0.00 | 92 | 1018.5 |
| 20260901003026 | 21 | 229 | 0.0 | 0.0 | 0.00 | 0.00 | 0.00 | 91 | 1018.4 |
| 20260901001525 | 21 | 229 | 0.0 | 0.0 | 0.00 | 0.00 | 0.00 | 91 | 1018.4 |
| 20260901000021 | 21 | 229 | 0.0 | 0.0 | 0.00 | 0.00 | 0.00 | 89 | 1018.3 |
| 20260831234519 | 22 | 229 | 0.0 | 0.0 | 0.00 | 0.00 | 0.00 | 87 | 1018.4 |
| 20260831233018 | 22 | 229 | 0.0 | 0.0 | 0.00 | 0.00 | 0.00 | 85 | 1018.3 |
| 20260831231529 | 23 | 229 | 0.0 | 0.0 | 0.00 | 0.00 | 0.00 | 82 | 1018.4 |
| 20260831230024 | 24 | 229 | 0.0 | 0.0 | 0.00 | 0.00 | 0.00 | 79 | 1018.4 |
| 20260831224542 | 24 | 231 | 0.0 | 0.0 | 0.00 | 0.00 | 0.00 | 76 | 1018.6 |
| 20260831223015 | 24 | 234 | 0.0 | 0.0 | 0.00 | 0.00 | 0.00 | 78 | 1018.6 |
| 20260831221514 | 24 | 239 | 0.0 | 0.0 | 0.00 | 0.00 | 0.00 | 75 | 1018.8 |
| 20260831220014 | 25 | 209 | 0.0 | 0.0 | 0.00 | 0.00 | 0.00 | 76 | 1018.9 |
| 20260831214509 | 23 | 211 | 0.0 | 0.0 | 0.00 | 0.00 | 0.00 | 81 | 1019.0 |
| 20260831213009 | 23 | 263 | 0.0 | 0.0 | 0.00 | 0.00 | 0.00 | 82 | 1019.0 |
| 20260831211508 | 23 | 242 | 0.0 | 0.0 | 0.00 | 0.00 | 0.00 | 82 | 1019.2 |
| 20260831210014 | 23 | 246 | 0.0 | 0.0 | 0.00 | 0.00 | 0.00 | 82 | 1019.3 |
| 20260831204506 | 23 | 244 | 0.0 | 0.0 | 0.00 | 0.00 | 0.00 | 82 | 1019.2 |
| 20260831203013 | 23 | 271 | 0.0 | 0.0 | 0.00 | 0.00 | 0.00 | 80 | 1019.2 |
| 20260831201505 | 23 | 236 | 0.0 | 0.0 | 0.00 | 0.00 | 0.00 | 81 | 1019.4 |
| 20260831200004 | 23 | 242 | 0.0 | 0.0 | 0.00 | 0.00 | 0.00 | 82 | 1019.6 |
| 20260831194508 | 23 | 240 | 0.0 | 0.0 | 0.00 | 0.00 | 0.00 | 83 | 1019.8 |
| 20260831193046 | 23 | 233 | 0.0 | 0.0 | 0.00 | 0.00 | 0.00 | 81 | 1019.8 |
| 20260831191503 | 23 | 190 | 0.0 | 0.0 | 0.00 | 0.00 | 0.00 | 78 | 1020.0 |
| 20260831190126 | 23 | 264 | 0.0 | 0.0 | 0.00 | 0.00 | 0.00 | 77 | 1020.2 |
| 20260831184600 | 24 | 65 | 0.0 | 0.0 | 0.00 | 0.00 | 0.00 | 75 | 1020.4 |
| 20260831183101 | 23 | 65 | 0.0 | 0.0 | 0.00 | 0.00 | 0.00 | 75 | 1020.4 |
| 20260831181603 | 23 | 65 | 0.0 | 0.0 | 0.00 | 0.00 | 0.00 | 77 | 1020.4 |
| 20260831180057 | 23 | 77 | 0.0 | 0.0 | 0.00 | 0.00 | 0.00 | 76 | 1020.4 |
| 20260831174557 | 24 | 81 | 0.0 | 0.0 | 0.00 | 0.00 | 0.00 | 75 | 1020.5 |
| 20260831173057 | 24 | 82 | 0.0 | 0.0 | 0.00 | 0.00 | 0.00 | 74 | 1020.5 |
| 20260831171557 | 24 | 262 | 0.0 | 0.0 | 0.00 | 0.00 | 0.00 | 73 | 1020.5 |
| 20260831170104 | 24 | 261 | 0.0 | 0.0 | 0.00 | 0.00 | 0.00 | 74 | 1020.6 |
| 20260831164557 | 23 | 54 | 0.0 | 0.0 | 0.00 | 0.00 | 0.00 | 76 | 1020.6 |
| 20260831163054 | 24 | 345 | 0.0 | 0.0 | 0.00 | 0.00 | 0.00 | 75 | 1020.5 |
| 20260831161552 | 23 | 72 | 0.0 | 0.0 | 0.00 | 0.00 | 0.00 | 75 | 1020.7 |
| 20260831160052 | 23 | 95 | 0.0 | 0.0 | 0.00 | 0.00 | 0.00 | 74 | 1020.7 |
| 20260831154615 | 23 | 63 | 0.0 | 0.0 | 0.00 | 0.00 | 0.00 | 78 | 1020.7 |
| 20260831153047 | 22 | 64 | 0.0 | 0.0 | 0.00 | 0.00 | 0.00 | 76 | 1020.8 |
| 20260831151606 | 22 | 65 | 0.0 | 0.0 | 0.00 | 0.00 | 0.00 | 77 | 1021.1 |
| 20260831150044 | 22 | 65 | 0.0 | 0.0 | 0.00 | 0.00 | 0.00 | 77 | 1021.0 |
| 20260831144544 | 22 | 8 | 0.0 | 0.0 | 0.00 | 0.00 | 0.00 | 78 | 1021.2 |
| 20260831143044 | 22 | 8 | 0.0 | 0.0 | 0.00 | 0.00 | 0.00 | 79 | 1021.2 |
| 20260831141543 | 22 | 268 | 0.0 | 0.0 | 0.00 | 0.00 | 0.00 | 79 | 1021.2 |
| 20260831140042 | 22 | 53 | 0.0 | 0.0 | 0.00 | 0.00 | 0.00 | 79 | 1021.2 |
| 20260831134547 | 21 | 54 | 0.0 | 0.0 | 0.00 | 0.00 | 0.00 | 81 | 1021.0 |
| 20260831133041 | 21 | 67 | 0.0 | 0.0 | 0.00 | 0.00 | 0.00 | 82 | 1020.9 |
| 20260831131543 | 21 | 66 | 0.0 | 0.0 | 0.00 | 0.00 | 0.00 | 84 | 1020.9 |
| 20260831130044 | 21 | 67 | 0.0 | 0.0 | 0.00 | 0.00 | 0.00 | 86 | 1021.0 |
| 20260831124547 | 20 | 68 | 0.0 | 0.0 | 0.00 | 0.00 | 0.00 | 87 | 1020.9 |
| 20260831123038 | 20 | 74 | 0.0 | 0.0 | 0.00 | 0.00 | 0.00 | 88 | 1020.9 |
| 20260831121545 | 20 | 75 | 0.0 | 0.0 | 0.00 | 0.00 | 0.00 | 90 | 1021.1 |
| 20260831120039 | 20 | 75 | 0.0 | 0.0 | 0.00 | 0.00 | 0.00 | 92 | 1020.9 |
| 20260831114537 | 20 | 75 | 0.0 | 0.0 | 0.00 | 0.00 | 0.00 | 92 | 1021.0 |
| 20260831113035 | 19 | 75 | 0.0 | 0.0 | 0.00 | 0.00 | 0.00 | 92 | 1020.7 |
| 20260831111529 | -17 | 0.0 | 0.0 | 0.00 | 0.00 | 0.00 | 1020.7 | ||
| 20260831110025 | -17 | 0.0 | 0.0 | 0.00 | 0.00 | 0.00 | 1020.4 | ||
| 20260831104521 | -17 | 0.0 | 0.0 | 0.00 | 0.00 | 0.00 | 1020.2 | ||
| 20260831103022 | -17 | 0.0 | 0.0 | 0.00 | 0.00 | 0.00 | 1020.0 | ||
| 20260831101513 | -17 | 0.0 | 0.0 | 0.00 | 0.00 | 0.00 | 1020.2 | ||
| 20260831100013 | -17 | 0.0 | 0.0 | 0.00 | 0.00 | 0.00 | 1020.0 | ||
| 20260831094505 | -17 | 0.0 | 0.0 | 0.00 | 0.00 | 0.00 | 1020.0 | ||
| 20260831093001 | -17 | 0.0 | 0.0 | 0.00 | 0.00 | 0.00 | 1019.9 | ||
| 20260831091502 | -17 | 0.0 | 0.0 | 0.00 | 0.00 | 0.00 | 1019.9 | ||
| 20260831090001 | -17 | 0.0 | 0.0 | 0.00 | 0.00 | 0.00 | 1019.7 | ||
| 20260831084607 | -17 | 0.0 | 0.0 | 0.00 | 0.00 | 0.00 | 1019.8 | ||
| 20260831083101 | -17 | 0.0 | 0.0 | 0.00 | 0.00 | 0.00 | 1019.6 | ||
| 20260831081600 | -17 | 0.0 | 0.0 | 0.00 | 0.00 | 0.00 | 1019.5 | ||
| 20260831080053 | -17 | 0.0 | 0.0 | 0.00 | 0.00 | 0.00 | 1019.7 | ||
| 20260831074549 | -17 | 0.0 | 0.0 | 0.00 | 0.00 | 0.00 | 1020.0 | ||
| 20260831073047 | -17 | 0.0 | 0.0 | 0.00 | 0.00 | 0.00 | 1019.8 | ||
| 20260831071602 | -17 | 0.0 | 0.0 | 0.00 | 0.00 | 0.00 | 1019.6 | ||
| 20260831070036 | -17 | 0.0 | 0.0 | 0.00 | 0.00 | 0.00 | 1019.8 | ||
| 20260831064535 | -17 | 0.0 | 0.0 | 0.00 | 0.00 | 0.00 | 1019.7 | ||
| 20260831063037 | -17 | 0.0 | 0.0 | 0.00 | 0.00 | 0.00 | 1019.5 | ||
| 20260831061528 | -17 | 0.0 | 0.0 | 0.00 | 0.00 | 0.00 | 1019.8 | ||
| 20260831060025 | 21 | 233 | 0.0 | 0.0 | 0.00 | 0.00 | 0.00 | 87 | 1019.8 |
| 20260831054525 | 21 | 233 | 0.0 | 0.0 | 0.00 | 0.00 | 0.00 | 86 | 1019.6 |
| 20260831053041 | 21 | 233 | 0.0 | 0.0 | 0.00 | 0.00 | 0.00 | 85 | 1019.4 |
| 20260831051521 | 21 | 141 | 0.0 | 0.0 | 0.00 | 0.00 | 0.00 | 85 | 1019.4 |
| 20260831050019 | 21 | 141 | 0.0 | 0.0 | 0.00 | 0.00 | 0.00 | 84 | 1019.3 |
| 20260831044517 | 22 | 250 | 0.0 | 0.0 | 0.00 | 0.00 | 0.00 | 84 | 1019.8 |
| 20260831043015 | 22 | 250 | 0.0 | 0.0 | 0.00 | 0.00 | 0.00 | 83 | 1019.7 |
| 20260831041513 | 22 | 250 | 0.0 | 0.0 | 0.00 | 0.00 | 0.00 | 82 | 1019.7 |
| 20260831040009 | 22 | 250 | 0.0 | 0.0 | 0.00 | 0.00 | 0.00 | 82 | 1020.0 |
| 20260831034509 | 22 | 250 | 0.0 | 0.0 | 0.00 | 0.00 | 0.00 | 81 | 1019.9 |
| 20260831033024 | 22 | 256 | 0.0 | 0.0 | 0.00 | 0.00 | 0.00 | 80 | 1019.9 |
| 20260831031509 | 23 | 231 | 0.0 | 0.0 | 0.00 | 0.00 | 0.00 | 80 | 1020.0 |
| 20260831030008 | 22 | 233 | 0.0 | 0.0 | 0.00 | 0.00 | 0.00 | 81 | 1019.9 |
| 20260831024508 | 22 | 255 | 0.0 | 0.0 | 0.00 | 0.00 | 0.00 | 87 | 1019.9 |
| 20260831023007 | 22 | 252 | 0.0 | 0.0 | 0.00 | 0.00 | 0.00 | 90 | 1020.0 |
| 20260831021510 | 22 | 252 | 0.0 | 0.0 | 0.00 | 0.00 | 0.00 | 90 | 1020.0 |
| 20260831020007 | 22 | 252 | 0.0 | 0.0 | 0.00 | 0.00 | 0.00 | 90 | 1019.9 |